{"data":{"norad_id":56748,"epoch":"2026-09-21T23:05:35.731968Z","epoch_age_seconds":70433,"freshness":"FRESH","line1":"1 56748U 23072F   26264.96221912  .00005931  00000+0  19018-3 0  9995","line2":"2 56748  97.5048 104.2659 0006586  43.0968 317.0788 15.32719310184590","mean_motion":15.3271931,"eccentricity":0.0006586,"inclination_deg":97.5048,"raan_deg":104.2659,"arg_perigee_deg":43.0968,"mean_anomaly_deg":317.0788,"bstar":0.00019018,"rev_number":18459,"period_min":93.95066602247,"perigee_km":463.19449887158,"apogee_km":472.21183954246,"semimajor_km":6845.840169207,"source":"CELESTRAK","updated_at":"2026-09-22T09:00:25.906249Z"}}